[Date Prev][Date Next][Thread Prev][Thread Next] - [Date Index][Thread Index][Author Index]

2 Line ISS Keps 5-23



ISS
1 25544U 98067A   06142.94844068  .00012261  00000-0  82815-4 0  9839
2 25544 051.6359 317.4330 0008790 233.7757 262.8119 15.75511687429189
----
Via the sarex mailing list at AMSAT.ORG courtesy of AMSAT-NA.
To unsubscribe, send "unsubscribe sarex" to Majordomo@amsat.org



AMSAT Top AMSAT Home